sat.trackr.live / text

‹ back to catalog

STARLINK-32244

NORAD 60411 · 2024-141P

PAYLOAD ACTIVE UNKNOWN

§ Identity

Operator
Country
US
Launch date
2024-08-10
Launch site
AFETR
Launch vehicle
Mass (kg)
RCS (m²)

Purposes: comms

External: N2YO · Heavens-Above · Gunter

§ Orbital elements

Epoch: 2026-09-21T17:28:23.240928Z

Period
94.01 min
Inclination
53.1618°
Eccentricity
0.0001186
Mean motion
15.31697973 rev/d
Perigee alt
469.9 km
Apogee alt
471.6 km
Semi-major
6,848.9 km
B*
3.0037e-5
RAAN
50.6859°
Arg perigee
84.6307°
Mean anomaly
275.4830°
Rev number
11,961

§ Raw data

STARLINK-322441 60411U 24141P   26264.72804677  .00000567  00000+0  30037-4 0  99992 60411  53.1618  50.6859 0001186  84.6307 275.4830 15.31697973119613

JSON: /api/v1/satellites/60411 · /tle

For live sub-satellite position, see the globe view (requires WebGL).

§ Visibility from observer

Set your observer location to see the next 7 days of passes ≥ 10°. The values pass through the URL so the page stays shareable.

No JS? Fill the form by hand. The geolocation button needs JavaScript.